Year,Month,Day,Hour,Minute,Value (Times are PST for temperature in C)
2009,04,24,00,00,8.10
2009,04,24,00,01,8.10
2009,04,24,00,02,8.10
2009,04,24,00,03,8.10
2009,04,24,00,04,8.10
2009,04,24,00,05,8.10
2009,04,24,00,06,8.10
2009,04,24,00,07,8.10
2009,04,24,00,08,8.10
2009,04,24,00,09,8.10
2009,04,24,00,10,8.10
2009,04,24,00,11,8.10
2009,04,24,00,12,8.10
2009,04,24,00,13,8.10
2009,04,24,00,14,8.10
2009,04,24,00,15,8.10
2009,04,24,00,16,8.10
2009,04,24,00,17,8.10
2009,04,24,00,18,8.10
2009,04,24,00,19,8.20
2009,04,24,00,20,8.20
2009,04,24,00,21,8.20
2009,04,24,00,22,8.20
2009,04,24,00,23,8.20
2009,04,24,00,24,8.20
2009,04,24,00,25,8.20
2009,04,24,00,26,8.20
2009,04,24,00,27,8.30
2009,04,24,00,28,8.30
2009,04,24,00,29,8.30
2009,04,24,00,30,8.30
2009,04,24,00,31,8.30
2009,04,24,00,32,8.30
2009,04,24,00,33,8.30
2009,04,24,00,34,8.30
2009,04,24,00,35,8.30
2009,04,24,00,36,8.30
2009,04,24,00,37,8.30
2009,04,24,00,38,8.30
2009,04,24,00,39,8.40
2009,04,24,00,40,8.40
2009,04,24,00,41,8.40
2009,04,24,00,42,8.40
2009,04,24,00,43,8.40
2009,04,24,00,44,8.40
2009,04,24,00,45,8.40
2009,04,24,00,46,8.40
2009,04,24,00,47,8.40
2009,04,24,00,48,8.40
2009,04,24,00,49,8.40
2009,04,24,00,50,8.40
2009,04,24,00,51,8.30
2009,04,24,00,52,8.30
2009,04,24,00,53,8.30
2009,04,24,00,54,8.30
2009,04,24,00,55,8.20
2009,04,24,00,56,8.20
2009,04,24,00,57,8.20
2009,04,24,00,58,8.10
2009,04,24,00,59,8.10
2009,04,24,01,00,8.10
2009,04,24,01,01,8.10
2009,04,24,01,02,8.10
2009,04,24,01,03,8.10
2009,04,24,01,04,8.10
2009,04,24,01,05,8.10
2009,04,24,01,06,8.10
2009,04,24,01,07,8.10
2009,04,24,01,08,8.00
2009,04,24,01,09,8.10
2009,04,24,01,10,8.00
2009,04,24,01,11,8.00
2009,04,24,01,12,8.00
2009,04,24,01,13,8.00
2009,04,24,01,14,8.00
2009,04,24,01,15,8.00
2009,04,24,01,16,8.00
2009,04,24,01,17,8.00
2009,04,24,01,18,8.00
2009,04,24,01,19,8.00
2009,04,24,01,20,8.00
2009,04,24,01,21,8.00
2009,04,24,01,22,8.00
2009,04,24,01,23,8.00
2009,04,24,01,24,8.00
2009,04,24,01,25,7.90
2009,04,24,01,26,7.90
2009,04,24,01,27,7.90
2009,04,24,01,28,7.90
2009,04,24,01,29,7.90
2009,04,24,01,30,7.90
2009,04,24,01,31,7.90
2009,04,24,01,32,7.90
2009,04,24,01,33,7.90
2009,04,24,01,34,7.90
2009,04,24,01,35,7.90
2009,04,24,01,36,7.90
2009,04,24,01,37,7.80
2009,04,24,01,38,7.80
2009,04,24,01,39,7.80
2009,04,24,01,40,7.80
2009,04,24,01,41,7.80
2009,04,24,01,42,7.80
2009,04,24,01,43,7.70
2009,04,24,01,44,7.70
2009,04,24,01,45,7.70
2009,04,24,01,46,7.50
2009,04,24,01,47,7.40
2009,04,24,01,48,7.30
2009,04,24,01,49,7.20
2009,04,24,01,50,7.10
2009,04,24,01,51,7.10
2009,04,24,01,52,7.00
2009,04,24,01,53,7.00
2009,04,24,01,54,6.90
2009,04,24,01,55,6.90
2009,04,24,01,56,6.90
2009,04,24,01,57,6.80
2009,04,24,01,58,6.80
2009,04,24,01,59,6.80
2009,04,24,02,00,6.80
2009,04,24,02,01,6.80
2009,04,24,02,02,6.80
2009,04,24,02,03,6.80
2009,04,24,02,04,6.80
2009,04,24,02,05,6.80
2009,04,24,02,06,6.80
2009,04,24,02,07,6.80
2009,04,24,02,08,6.80
2009,04,24,02,09,6.80
2009,04,24,02,10,6.80
2009,04,24,02,11,6.80
2009,04,24,02,12,6.80
2009,04,24,02,13,6.80
2009,04,24,02,14,6.80
2009,04,24,02,15,6.80
2009,04,24,02,16,6.80
2009,04,24,02,17,6.80
2009,04,24,02,18,6.80
2009,04,24,02,19,6.80
2009,04,24,02,20,6.80
2009,04,24,02,21,6.80
2009,04,24,02,22,6.80
2009,04,24,02,23,6.80
2009,04,24,02,24,6.80
2009,04,24,02,25,6.80
2009,04,24,02,26,6.90
2009,04,24,02,27,6.90
2009,04,24,02,28,6.90
2009,04,24,02,29,6.90
2009,04,24,02,30,6.90
2009,04,24,02,31,6.80
2009,04,24,02,32,6.80
2009,04,24,02,33,6.80
2009,04,24,02,34,6.70
2009,04,24,02,35,6.50
2009,04,24,02,36,6.30
2009,04,24,02,37,6.10
2009,04,24,02,38,5.90
2009,04,24,02,39,5.80
2009,04,24,02,40,5.70
2009,04,24,02,41,5.50
2009,04,24,02,42,5.40
2009,04,24,02,43,5.30
2009,04,24,02,44,5.20
2009,04,24,02,45,5.10
2009,04,24,02,46,5.00
2009,04,24,02,47,4.90
2009,04,24,02,48,4.90
2009,04,24,02,49,4.80
2009,04,24,02,50,4.70
2009,04,24,02,51,4.60
2009,04,24,02,52,4.60
2009,04,24,02,53,4.50
2009,04,24,02,54,4.40
2009,04,24,02,55,4.40
2009,04,24,02,56,4.30
2009,04,24,02,57,4.30
2009,04,24,02,58,4.30
2009,04,24,02,59,4.30
2009,04,24,03,00,4.30
2009,04,24,03,01,4.30
2009,04,24,03,02,4.40
2009,04,24,03,03,4.40
2009,04,24,03,04,4.50
2009,04,24,03,05,4.60
2009,04,24,03,06,4.60
2009,04,24,03,07,4.70
2009,04,24,03,08,4.70
2009,04,24,03,09,4.70
2009,04,24,03,10,4.70
2009,04,24,03,11,4.70
2009,04,24,03,12,4.70
2009,04,24,03,13,4.70
2009,04,24,03,14,4.70
2009,04,24,03,15,4.60
2009,04,24,03,16,4.60
2009,04,24,03,17,4.60
2009,04,24,03,18,4.60
2009,04,24,03,19,4.60
2009,04,24,03,20,4.60
2009,04,24,03,21,4.60
2009,04,24,03,22,4.60
2009,04,24,03,23,4.60
2009,04,24,03,24,4.60
2009,04,24,03,25,4.60
2009,04,24,03,26,4.60
2009,04,24,03,27,4.60
2009,04,24,03,28,4.60
2009,04,24,03,29,4.70
2009,04,24,03,30,4.70
2009,04,24,03,31,4.80
2009,04,24,03,32,4.90
2009,04,24,03,33,4.90
2009,04,24,03,34,5.00
2009,04,24,03,35,5.00
2009,04,24,03,36,5.00
2009,04,24,03,37,5.00
2009,04,24,03,38,4.90
2009,04,24,03,39,4.80
2009,04,24,03,40,4.80
2009,04,24,03,41,4.70
2009,04,24,03,42,4.70
2009,04,24,03,43,4.60
2009,04,24,03,44,4.50
2009,04,24,03,45,4.50
2009,04,24,03,46,4.40
2009,04,24,03,47,4.30
2009,04,24,03,48,4.30
2009,04,24,03,49,4.30
2009,04,24,03,50,4.20
2009,04,24,03,51,4.20
2009,04,24,03,52,4.20
2009,04,24,03,53,4.20
2009,04,24,03,54,4.20
2009,04,24,03,55,4.20
2009,04,24,03,56,4.20
2009,04,24,03,57,4.10
2009,04,24,03,58,4.10
2009,04,24,03,59,4.10
2009,04,24,04,00,4.10
2009,04,24,04,01,4.10
2009,04,24,04,02,4.10
2009,04,24,04,03,4.00
2009,04,24,04,04,4.10
2009,04,24,04,05,4.10
2009,04,24,04,06,4.10
2009,04,24,04,07,4.20
2009,04,24,04,08,4.20
2009,04,24,04,09,4.30
2009,04,24,04,10,4.30
2009,04,24,04,11,4.30
2009,04,24,04,12,4.30
2009,04,24,04,13,4.30
2009,04,24,04,14,4.30
2009,04,24,04,15,4.30
2009,04,24,04,16,4.30
2009,04,24,04,17,4.30
2009,04,24,04,18,4.30
2009,04,24,04,19,4.20
2009,04,24,04,20,4.20
2009,04,24,04,21,4.20
2009,04,24,04,22,4.20
2009,04,24,04,23,4.10
2009,04,24,04,24,4.00
2009,04,24,04,25,4.00
2009,04,24,04,26,4.00
2009,04,24,04,27,3.90
2009,04,24,04,28,3.90
2009,04,24,04,29,3.90
2009,04,24,04,30,3.80
2009,04,24,04,31,3.80
2009,04,24,04,32,3.90
2009,04,24,04,33,3.90
2009,04,24,04,34,3.90
2009,04,24,04,35,3.90
2009,04,24,04,36,3.90
2009,04,24,04,37,3.90
2009,04,24,04,38,3.90
2009,04,24,04,39,3.90
2009,04,24,04,40,3.80
2009,04,24,04,41,3.80
2009,04,24,04,42,3.80
2009,04,24,04,43,3.70
2009,04,24,04,44,3.60
2009,04,24,04,45,3.50
2009,04,24,04,46,3.50
2009,04,24,04,47,3.40
2009,04,24,04,48,3.30
2009,04,24,04,49,3.30
2009,04,24,04,50,3.30
2009,04,24,04,51,3.20
2009,04,24,04,52,3.20
2009,04,24,04,53,3.10
2009,04,24,04,54,3.10
2009,04,24,04,55,3.00
2009,04,24,04,56,3.00
2009,04,24,04,57,2.90
2009,04,24,04,58,2.90
2009,04,24,04,59,2.90
2009,04,24,05,00,2.80
2009,04,24,05,01,2.80
2009,04,24,05,02,2.80
2009,04,24,05,03,2.70
2009,04,24,05,04,2.70
2009,04,24,05,05,2.60
2009,04,24,05,06,2.60
2009,04,24,05,07,2.60
2009,04,24,05,08,2.60
2009,04,24,05,09,2.60
2009,04,24,05,10,2.50
2009,04,24,05,11,2.50
2009,04,24,05,12,2.50
2009,04,24,05,13,2.40
2009,04,24,05,14,2.40
2009,04,24,05,15,2.40
2009,04,24,05,16,2.40
2009,04,24,05,17,2.40
2009,04,24,05,18,2.40
2009,04,24,05,19,2.40
2009,04,24,05,20,2.50
2009,04,24,05,21,2.50
2009,04,24,05,22,2.50
2009,04,24,05,23,2.50
2009,04,24,05,24,2.50
2009,04,24,05,25,2.40
2009,04,24,05,26,2.40
2009,04,24,05,27,2.40
2009,04,24,05,28,2.40
2009,04,24,05,29,2.40
2009,04,24,05,30,2.40
2009,04,24,05,31,2.40
2009,04,24,05,32,2.40
2009,04,24,05,33,2.40
2009,04,24,05,34,2.40
2009,04,24,05,35,2.40
2009,04,24,05,36,2.30
2009,04,24,05,37,2.30
2009,04,24,05,38,2.30
2009,04,24,05,39,2.30
2009,04,24,05,40,2.30
2009,04,24,05,41,2.30
2009,04,24,05,42,2.30
2009,04,24,05,43,2.20
2009,04,24,05,44,2.20
2009,04,24,05,45,2.20
2009,04,24,05,46,2.20
2009,04,24,05,47,2.20
2009,04,24,05,48,2.20
2009,04,24,05,49,2.20
2009,04,24,05,50,2.20
2009,04,24,05,51,2.20
2009,04,24,05,52,2.20
2009,04,24,05,53,2.10
2009,04,24,05,54,2.20
2009,04,24,05,55,2.20
2009,04,24,05,56,2.20
2009,04,24,05,57,2.20
2009,04,24,05,58,2.20
2009,04,24,05,59,2.20
2009,04,24,06,00,2.20
2009,04,24,06,01,2.30
2009,04,24,06,02,2.30
2009,04,24,06,03,2.30
2009,04,24,06,04,2.30
2009,04,24,06,05,2.40
2009,04,24,06,06,2.40
2009,04,24,06,07,2.40
2009,04,24,06,08,2.40
2009,04,24,06,09,2.40
2009,04,24,06,10,2.50
2009,04,24,06,11,2.50
2009,04,24,06,12,2.50
2009,04,24,06,13,2.50
2009,04,24,06,14,2.50
2009,04,24,06,15,2.50
2009,04,24,06,16,2.50
2009,04,24,06,17,2.40
2009,04,24,06,18,2.40
2009,04,24,06,19,2.40
2009,04,24,06,20,2.40
2009,04,24,06,21,2.40
2009,04,24,06,22,2.40
2009,04,24,06,23,2.40
2009,04,24,06,24,2.40
2009,04,24,06,25,2.40
2009,04,24,06,26,2.40
2009,04,24,06,27,2.40
2009,04,24,06,28,2.40
2009,04,24,06,29,2.40
2009,04,24,06,30,2.40
2009,04,24,06,31,2.40
2009,04,24,06,32,2.40
2009,04,24,06,33,2.40
2009,04,24,06,34,2.50
2009,04,24,06,35,2.50
2009,04,24,06,36,2.50
2009,04,24,06,37,2.60
2009,04,24,06,38,2.60
2009,04,24,06,39,2.60
2009,04,24,06,40,2.70
2009,04,24,06,41,2.70
2009,04,24,06,42,2.70
2009,04,24,06,43,2.80
2009,04,24,06,44,2.80
2009,04,24,06,45,2.80
2009,04,24,06,46,2.90
2009,04,24,06,47,2.90
2009,04,24,06,48,3.00
2009,04,24,06,49,3.00
2009,04,24,06,50,3.10
2009,04,24,06,51,3.10
2009,04,24,06,52,3.10
2009,04,24,06,53,3.20
2009,04,24,06,54,3.20
2009,04,24,06,55,3.20
2009,04,24,06,56,3.20
2009,04,24,06,57,3.30
2009,04,24,06,58,3.30
2009,04,24,06,59,3.30
2009,04,24,07,00,3.30
2009,04,24,07,01,3.40
2009,04,24,07,02,3.40
2009,04,24,07,03,3.50
2009,04,24,07,04,3.50
2009,04,24,07,05,3.60
2009,04,24,07,06,3.60
2009,04,24,07,07,3.60
2009,04,24,07,08,3.60
2009,04,24,07,09,3.60
2009,04,24,07,10,3.70
2009,04,24,07,11,3.70
2009,04,24,07,12,3.70
2009,04,24,07,13,3.70
2009,04,24,07,14,3.80
2009,04,24,07,15,3.80
2009,04,24,07,16,3.90
2009,04,24,07,17,3.90
2009,04,24,07,18,4.00
2009,04,24,07,19,4.00
2009,04,24,07,20,4.10
2009,04,24,07,21,4.20
2009,04,24,07,22,4.30
2009,04,24,07,23,4.40
2009,04,24,07,24,4.50
2009,04,24,07,25,4.50
2009,04,24,07,26,4.60
2009,04,24,07,27,4.60
2009,04,24,07,28,4.70
2009,04,24,07,29,4.70
2009,04,24,07,30,4.80
2009,04,24,07,31,4.80
2009,04,24,07,32,4.80
2009,04,24,07,33,4.80
2009,04,24,07,34,4.80
2009,04,24,07,35,4.80
2009,04,24,07,36,4.80
2009,04,24,07,37,4.80
2009,04,24,07,38,4.80
2009,04,24,07,39,4.80
2009,04,24,07,40,4.90
2009,04,24,07,41,4.90
2009,04,24,07,42,4.90
2009,04,24,07,43,5.00
2009,04,24,07,44,5.10
2009,04,24,07,45,5.10
2009,04,24,07,46,5.20
2009,04,24,07,47,5.20
2009,04,24,07,48,5.30
2009,04,24,07,49,5.40
2009,04,24,07,50,5.40
2009,04,24,07,51,5.50
2009,04,24,07,52,5.60
2009,04,24,07,53,5.70
2009,04,24,07,54,5.70
2009,04,24,07,55,5.80
2009,04,24,07,56,5.90
2009,04,24,07,57,6.00
2009,04,24,07,58,6.00
2009,04,24,07,59,6.10
2009,04,24,08,00,6.10
2009,04,24,08,01,6.20
2009,04,24,08,02,6.20
2009,04,24,08,03,6.30
2009,04,24,08,04,6.40
2009,04,24,08,05,6.40
2009,04,24,08,06,6.50
2009,04,24,08,07,6.60
2009,04,24,08,08,6.70
2009,04,24,08,09,6.80
2009,04,24,08,10,6.90
2009,04,24,08,11,6.90
2009,04,24,08,12,7.00
2009,04,24,08,13,7.00
2009,04,24,08,14,7.10
2009,04,24,08,15,7.10
2009,04,24,08,16,7.10
2009,04,24,08,17,7.20
2009,04,24,08,18,7.20
2009,04,24,08,19,7.20
2009,04,24,08,20,7.20
2009,04,24,08,21,7.20
2009,04,24,08,22,7.20
2009,04,24,08,23,7.20
2009,04,24,08,24,7.30
2009,04,24,08,25,7.30
2009,04,24,08,26,7.40
2009,04,24,08,27,7.50
2009,04,24,08,28,7.50
2009,04,24,08,29,7.60
2009,04,24,08,30,7.70
2009,04,24,08,31,7.70
2009,04,24,08,32,7.80
2009,04,24,08,33,7.80
2009,04,24,08,34,7.80
2009,04,24,08,35,7.90
2009,04,24,08,36,7.90
2009,04,24,08,37,8.00
2009,04,24,08,38,8.00
2009,04,24,08,39,8.10
2009,04,24,08,40,8.20
2009,04,24,08,41,8.20
2009,04,24,08,42,8.30
2009,04,24,08,43,8.30
2009,04,24,08,44,8.30
2009,04,24,08,45,8.30
2009,04,24,08,46,8.40
2009,04,24,08,47,8.40
2009,04,24,08,48,8.40
2009,04,24,08,49,8.50
2009,04,24,08,50,8.40
2009,04,24,08,51,8.50
2009,04,24,08,52,8.50
2009,04,24,08,53,8.60
2009,04,24,08,54,8.60
2009,04,24,08,55,8.70
2009,04,24,08,56,8.70
2009,04,24,08,57,8.80
2009,04,24,08,58,8.80
2009,04,24,08,59,8.90
2009,04,24,09,00,9.00
2009,04,24,09,01,9.10
2009,04,24,09,02,9.10
2009,04,24,09,03,9.20
2009,04,24,09,04,9.20
2009,04,24,09,05,9.20
2009,04,24,09,06,9.30
2009,04,24,09,07,9.30
2009,04,24,09,08,9.30
2009,04,24,09,09,9.40
2009,04,24,09,10,9.40
2009,04,24,09,11,9.50
2009,04,24,09,12,9.50
2009,04,24,09,13,9.60
2009,04,24,09,14,9.70
2009,04,24,09,15,9.80
2009,04,24,09,16,9.80
2009,04,24,09,17,9.90
2009,04,24,09,18,10.00
2009,04,24,09,19,10.10
2009,04,24,09,20,10.10
2009,04,24,09,21,10.20
2009,04,24,09,22,10.20
2009,04,24,09,23,10.20
2009,04,24,09,24,10.20
2009,04,24,09,25,10.20
2009,04,24,09,26,10.20
2009,04,24,09,27,10.20
2009,04,24,09,28,10.30
2009,04,24,09,29,10.30
2009,04,24,09,30,10.40
2009,04,24,09,31,10.40
2009,04,24,09,32,10.40
2009,04,24,09,33,10.40
2009,04,24,09,34,10.50
2009,04,24,09,35,10.50
2009,04,24,09,36,10.60
2009,04,24,09,37,10.60
2009,04,24,09,38,10.60
2009,04,24,09,39,10.70
2009,04,24,09,40,10.70
2009,04,24,09,41,10.70
2009,04,24,09,42,10.70
2009,04,24,09,43,10.70
2009,04,24,09,44,10.70
2009,04,24,09,45,10.80
2009,04,24,09,46,10.80
2009,04,24,09,47,10.80
2009,04,24,09,48,10.80
2009,04,24,09,49,10.90
2009,04,24,09,50,11.00
2009,04,24,09,51,11.20
2009,04,24,09,52,11.30
2009,04,24,09,53,11.40
2009,04,24,09,54,11.50
2009,04,24,09,55,11.60
2009,04,24,09,56,11.60
2009,04,24,09,57,11.70
2009,04,24,09,58,11.70
2009,04,24,09,59,11.80
2009,04,24,10,00,11.80
2009,04,24,10,01,11.70
2009,04,24,10,02,11.70
2009,04,24,10,03,11.70
2009,04,24,10,04,11.70
2009,04,24,10,05,11.60
2009,04,24,10,06,11.50
2009,04,24,10,07,11.40
2009,04,24,10,08,11.30
2009,04,24,10,09,11.10
2009,04,24,10,10,11.10
2009,04,24,10,11,11.10
2009,04,24,10,12,11.10
2009,04,24,10,13,11.20
2009,04,24,10,14,11.20
2009,04,24,10,15,11.10
2009,04,24,10,16,11.00
2009,04,24,10,17,11.00
2009,04,24,10,18,11.00
2009,04,24,10,19,11.10
2009,04,24,10,20,11.20
2009,04,24,10,21,11.20
2009,04,24,10,22,11.20
2009,04,24,10,23,11.10
2009,04,24,10,24,11.00
2009,04,24,10,25,10.80
2009,04,24,10,26,10.70
2009,04,24,10,27,10.60
2009,04,24,10,28,10.60
2009,04,24,10,29,10.50
2009,04,24,10,30,10.60
2009,04,24,10,31,10.60
2009,04,24,10,32,10.60
2009,04,24,10,33,10.60
2009,04,24,10,34,10.60
2009,04,24,10,35,10.60
2009,04,24,10,36,10.60
2009,04,24,10,37,10.60
2009,04,24,10,38,10.60
2009,04,24,10,39,10.70
2009,04,24,10,40,10.80
2009,04,24,10,41,10.90
2009,04,24,10,42,10.90
2009,04,24,10,43,10.80
2009,04,24,10,44,10.80
2009,04,24,10,45,10.80
2009,04,24,10,46,10.70
2009,04,24,10,47,10.70
2009,04,24,10,48,10.80
2009,04,24,10,49,10.80
2009,04,24,10,50,11.00
2009,04,24,10,51,11.00
2009,04,24,10,52,11.00
2009,04,24,10,53,11.10
2009,04,24,10,54,11.20
2009,04,24,10,55,11.30
2009,04,24,10,56,11.30
2009,04,24,10,57,11.40
2009,04,24,10,58,11.50
2009,04,24,10,59,11.60
2009,04,24,11,00,11.60
2009,04,24,11,01,11.60
2009,04,24,11,02,11.50
2009,04,24,11,03,11.40
2009,04,24,11,04,11.30
2009,04,24,11,05,11.20
2009,04,24,11,06,11.20
2009,04,24,11,07,11.10
2009,04,24,11,08,11.10
2009,04,24,11,09,11.00
2009,04,24,11,10,11.00
2009,04,24,11,11,11.10
2009,04,24,11,12,11.20
2009,04,24,11,13,11.20
2009,04,24,11,14,11.10
2009,04,24,11,15,11.20
2009,04,24,11,16,11.30
2009,04,24,11,17,11.40
2009,04,24,11,18,11.40
2009,04,24,11,19,11.50
2009,04,24,11,20,11.60
2009,04,24,11,21,11.70
2009,04,24,11,22,11.70
2009,04,24,11,23,11.80
2009,04,24,11,24,11.90
2009,04,24,11,25,11.90
2009,04,24,11,26,11.90
2009,04,24,11,27,12.00
2009,04,24,11,28,12.00
2009,04,24,11,29,12.10
2009,04,24,11,30,12.10
2009,04,24,11,31,12.20
2009,04,24,11,32,12.30
2009,04,24,11,33,12.30
2009,04,24,11,34,12.30
2009,04,24,11,35,12.40
2009,04,24,11,36,12.40
2009,04,24,11,37,12.50
2009,04,24,11,38,12.50
2009,04,24,11,39,12.50
2009,04,24,11,40,12.30
2009,04,24,11,41,12.00
2009,04,24,11,42,11.80
2009,04,24,11,43,11.70
2009,04,24,11,44,11.60
2009,04,24,11,45,11.60
2009,04,24,11,46,11.60
2009,04,24,11,47,11.60
2009,04,24,11,48,11.50
2009,04,24,11,49,11.40
2009,04,24,11,50,11.30
2009,04,24,11,51,11.20
2009,04,24,11,52,11.20
2009,04,24,11,53,11.20
2009,04,24,11,54,11.20
2009,04,24,11,55,11.20
2009,04,24,11,56,11.20
2009,04,24,11,57,11.10
2009,04,24,11,58,11.10
2009,04,24,11,59,11.20
2009,04,24,12,00,11.20
2009,04,24,12,01,11.10
2009,04,24,12,02,11.10
2009,04,24,12,03,11.00
2009,04,24,12,04,11.00
2009,04,24,12,05,11.10
2009,04,24,12,06,11.20
2009,04,24,12,07,11.40
2009,04,24,12,08,11.60
2009,04,24,12,09,11.70
2009,04,24,12,10,11.70
2009,04,24,12,11,11.70
2009,04,24,12,12,11.70
2009,04,24,12,13,11.70
2009,04,24,12,14,11.70
2009,04,24,12,15,11.70
2009,04,24,12,16,11.70
2009,04,24,12,17,11.70
2009,04,24,12,18,11.70
2009,04,24,12,19,11.80
2009,04,24,12,20,11.70
2009,04,24,12,21,11.70
2009,04,24,12,22,11.80
2009,04,24,12,23,11.80
2009,04,24,12,24,11.90
2009,04,24,12,25,11.90
2009,04,24,12,26,11.80
2009,04,24,12,27,11.60
2009,04,24,12,28,11.40
2009,04,24,12,29,11.30
2009,04,24,12,30,11.20
2009,04,24,12,31,11.00
2009,04,24,12,32,11.00
2009,04,24,12,33,10.90
2009,04,24,12,34,10.90
2009,04,24,12,35,11.00
2009,04,24,12,36,11.10
2009,04,24,12,37,11.10
2009,04,24,12,38,11.10
2009,04,24,12,39,11.00
2009,04,24,12,40,11.00
2009,04,24,12,41,11.10
2009,04,24,12,42,11.10
2009,04,24,12,43,11.10
2009,04,24,12,44,11.10
2009,04,24,12,45,11.10
2009,04,24,12,46,11.20
2009,04,24,12,47,11.30
2009,04,24,12,48,11.30
2009,04,24,12,49,11.30
2009,04,24,12,50,11.30
2009,04,24,12,51,11.30
2009,04,24,12,52,11.30
2009,04,24,12,53,11.30
2009,04,24,12,54,11.30
2009,04,24,12,55,11.40
2009,04,24,12,56,11.40
2009,04,24,12,57,11.40
2009,04,24,12,58,11.30
2009,04,24,12,59,11.30
2009,04,24,13,00,11.20
2009,04,24,13,01,11.10
2009,04,24,13,02,11.00
2009,04,24,13,03,11.00
2009,04,24,13,04,10.90
2009,04,24,13,05,10.90
2009,04,24,13,06,10.90
2009,04,24,13,07,10.90
2009,04,24,13,08,10.90
2009,04,24,13,09,10.90
2009,04,24,13,10,11.00
2009,04,24,13,11,11.10
2009,04,24,13,12,11.20
2009,04,24,13,13,11.30
2009,04,24,13,14,11.40
2009,04,24,13,15,11.50
2009,04,24,13,16,11.50
2009,04,24,13,17,11.50
2009,04,24,13,18,11.50
2009,04,24,13,19,11.40
2009,04,24,13,20,11.40
2009,04,24,13,21,11.30
2009,04,24,13,22,11.40
2009,04,24,13,23,11.40
2009,04,24,13,24,11.50
2009,04,24,13,25,11.60
2009,04,24,13,26,11.60
2009,04,24,13,27,11.50
2009,04,24,13,28,11.40
2009,04,24,13,29,11.40
2009,04,24,13,30,11.40
2009,04,24,13,31,11.40
2009,04,24,13,32,11.40
2009,04,24,13,33,11.30
2009,04,24,13,34,11.40
2009,04,24,13,35,11.40
2009,04,24,13,36,11.40
2009,04,24,13,37,11.30
2009,04,24,13,38,11.20
2009,04,24,13,39,11.20
2009,04,24,13,40,11.30
2009,04,24,13,41,11.30
2009,04,24,13,42,11.30
2009,04,24,13,43,11.30
2009,04,24,13,44,11.30
2009,04,24,13,45,11.20
2009,04,24,13,46,11.10
2009,04,24,13,47,11.00
2009,04,24,13,48,10.90
2009,04,24,13,49,10.90
2009,04,24,13,50,10.90
2009,04,24,13,51,11.00
2009,04,24,13,52,11.10
2009,04,24,13,53,11.20
2009,04,24,13,54,11.30
2009,04,24,13,55,11.30
2009,04,24,13,56,11.20
2009,04,24,13,57,11.10
2009,04,24,13,58,11.10
2009,04,24,13,59,11.20
2009,04,24,14,00,11.30
2009,04,24,14,01,11.40
2009,04,24,14,02,11.40
2009,04,24,14,03,11.50
2009,04,24,14,04,11.60
2009,04,24,14,05,11.60
2009,04,24,14,06,11.60
2009,04,24,14,07,11.60
2009,04,24,14,08,11.40
2009,04,24,14,09,11.30
2009,04,24,14,10,11.10
2009,04,24,14,11,11.00
2009,04,24,14,12,10.80
2009,04,24,14,13,10.70
2009,04,24,14,14,10.70
2009,04,24,14,15,10.80
2009,04,24,14,16,10.80
2009,04,24,14,17,10.80
2009,04,24,14,18,10.80
2009,04,24,14,19,10.90
2009,04,24,14,20,10.90
2009,04,24,14,21,10.90
2009,04,24,14,22,10.90
2009,04,24,14,23,10.80
2009,04,24,14,24,10.80
2009,04,24,14,25,10.90
2009,04,24,14,26,11.00
2009,04,24,14,27,11.10
2009,04,24,14,28,11.00
2009,04,24,14,29,11.00
2009,04,24,14,30,10.90
2009,04,24,14,31,11.00
2009,04,24,14,32,11.00
2009,04,24,14,33,11.10
2009,04,24,14,34,11.10
2009,04,24,14,35,11.10
2009,04,24,14,36,11.10
2009,04,24,14,37,11.10
2009,04,24,14,38,11.10
2009,04,24,14,39,11.10
2009,04,24,14,40,11.10
2009,04,24,14,41,11.20
2009,04,24,14,42,11.20
2009,04,24,14,43,11.20
2009,04,24,14,44,11.20
2009,04,24,14,45,11.10
2009,04,24,14,46,11.10
2009,04,24,14,47,11.10
2009,04,24,14,48,11.20
2009,04,24,14,49,11.20
2009,04,24,14,50,11.10
2009,04,24,14,51,11.00
2009,04,24,14,52,11.00
2009,04,24,14,53,11.10
2009,04,24,14,54,11.10
2009,04,24,14,55,11.30
2009,04,24,14,56,11.40
2009,04,24,14,57,11.60
2009,04,24,14,58,11.80
2009,04,24,14,59,11.90
2009,04,24,15,00,11.80
2009,04,24,15,01,11.70
2009,04,24,15,02,11.70
2009,04,24,15,03,11.70
2009,04,24,15,04,11.70
2009,04,24,15,05,11.70
2009,04,24,15,06,11.60
2009,04,24,15,07,11.60
2009,04,24,15,08,11.60
2009,04,24,15,09,11.50
2009,04,24,15,10,11.50
2009,04,24,15,11,11.40
2009,04,24,15,12,11.30
2009,04,24,15,13,11.40
2009,04,24,15,14,11.40
2009,04,24,15,15,11.30
2009,04,24,15,16,11.20
2009,04,24,15,17,11.20
2009,04,24,15,18,11.10
2009,04,24,15,19,11.10
2009,04,24,15,20,11.20
2009,04,24,15,21,11.20
2009,04,24,15,22,11.30
2009,04,24,15,23,11.40
2009,04,24,15,24,11.40
2009,04,24,15,25,11.50
2009,04,24,15,26,11.50
2009,04,24,15,27,11.40
2009,04,24,15,28,11.30
2009,04,24,15,29,11.10
2009,04,24,15,30,11.10
2009,04,24,15,31,11.00
2009,04,24,15,32,11.00
2009,04,24,15,33,11.10
2009,04,24,15,34,11.00
2009,04,24,15,35,11.00
2009,04,24,15,36,10.90
2009,04,24,15,37,10.90
2009,04,24,15,38,10.90
2009,04,24,15,39,10.90
2009,04,24,15,40,11.00
2009,04,24,15,41,11.00
2009,04,24,15,42,11.00
2009,04,24,15,43,11.00
2009,04,24,15,44,11.10
2009,04,24,15,45,11.20
2009,04,24,15,46,11.20
2009,04,24,15,47,11.30
2009,04,24,15,48,11.30
2009,04,24,15,49,11.30
2009,04,24,15,50,11.30
2009,04,24,15,51,11.20
2009,04,24,15,52,11.20
2009,04,24,15,53,11.20
2009,04,24,15,54,11.30
2009,04,24,15,55,11.40
2009,04,24,15,56,11.60
2009,04,24,15,57,11.80
2009,04,24,15,58,11.90
2009,04,24,15,59,12.10
2009,04,24,16,00,12.20
2009,04,24,16,01,12.30
2009,04,24,16,02,12.40
2009,04,24,16,03,12.50
2009,04,24,16,04,12.60
2009,04,24,16,05,12.70
2009,04,24,16,06,12.70
2009,04,24,16,07,12.80
2009,04,24,16,08,12.80
2009,04,24,16,09,12.90
2009,04,24,16,10,13.00
2009,04,24,16,11,13.10
2009,04,24,16,12,13.10
2009,04,24,16,13,13.20
2009,04,24,16,14,13.30
2009,04,24,16,15,13.40
2009,04,24,16,16,13.60
2009,04,24,16,17,13.80
2009,04,24,16,18,14.10
2009,04,24,16,19,14.50
2009,04,24,16,20,14.90
2009,04,24,16,21,15.20
2009,04,24,16,22,15.40
2009,04,24,16,23,15.50
2009,04,24,16,24,15.70
2009,04,24,16,25,15.80
2009,04,24,16,26,15.90
2009,04,24,16,27,16.00
2009,04,24,16,28,16.10
2009,04,24,16,29,16.10
2009,04,24,16,30,16.10
2009,04,24,16,31,16.20
2009,04,24,16,32,16.30
2009,04,24,16,33,16.30
2009,04,24,16,34,16.20
2009,04,24,16,35,16.20
2009,04,24,16,36,16.20
2009,04,24,16,37,16.20
2009,04,24,16,38,16.20
2009,04,24,16,39,16.20
2009,04,24,16,40,16.30
2009,04,24,16,41,16.30
2009,04,24,16,42,16.30
2009,04,24,16,43,16.30
2009,04,24,16,44,16.20
2009,04,24,16,45,16.20
2009,04,24,16,46,16.20
2009,04,24,16,47,16.20
2009,04,24,16,48,16.20
2009,04,24,16,49,16.10
2009,04,24,16,50,16.10
2009,04,24,16,51,16.20
2009,04,24,16,52,16.20
2009,04,24,16,53,16.20
2009,04,24,16,54,16.30
2009,04,24,16,55,16.30
2009,04,24,16,56,16.30
2009,04,24,16,57,16.20
2009,04,24,16,58,16.10
2009,04,24,16,59,16.10
2009,04,24,17,00,16.20
2009,04,24,17,01,16.20
2009,04,24,17,02,16.20
2009,04,24,17,03,16.10
2009,04,24,17,04,16.10
2009,04,24,17,05,16.10
2009,04,24,17,06,16.00
2009,04,24,17,07,15.90
2009,04,24,17,08,16.00
2009,04,24,17,09,16.00
2009,04,24,17,10,16.10
2009,04,24,17,11,16.10
2009,04,24,17,12,16.10
2009,04,24,17,13,16.00
2009,04,24,17,14,16.00
2009,04,24,17,15,16.00
2009,04,24,17,16,15.90
2009,04,24,17,17,15.90
2009,04,24,17,18,16.00
2009,04,24,17,19,16.10
2009,04,24,17,20,16.10
2009,04,24,17,21,16.10
2009,04,24,17,22,16.10
2009,04,24,17,23,16.10
2009,04,24,17,24,16.10
2009,04,24,17,25,16.10
2009,04,24,17,26,16.00
2009,04,24,17,27,15.90
2009,04,24,17,28,15.90
2009,04,24,17,29,15.80
2009,04,24,17,30,15.80
2009,04,24,17,31,15.90
2009,04,24,17,32,15.90
2009,04,24,17,33,15.80
2009,04,24,17,34,15.80
2009,04,24,17,35,15.80
2009,04,24,17,36,15.80
2009,04,24,17,37,15.80
2009,04,24,17,38,15.70
2009,04,24,17,39,15.80
2009,04,24,17,40,15.80
2009,04,24,17,41,15.70
2009,04,24,17,42,15.70
2009,04,24,17,43,15.60